Starlink 4738

operational
NORAD ID: 53819 Int'l Des: 2022-114 Owner: SPXS Country: US Constellation: starlink
LEOCIRCULAR

Über Starlink 4738

Beschreibung wird geladen...

Live-Position

3D-Globus wird geladen...

Nächste Überflüge

Höhenverlauf

Altitude vs Time

uPlot chart will show altitude changes over time

Zweizeiliger Elementsatz

1 53819U 22114B 25351.88564714 -.00000383 00000-0 -59475-5 0 9996
2 53819 53.2187 311.2247 0001536 86.6791 273.4377 15.08839135180483
Epoch: 17. Dez. 2025 • Age: 11 hours

Aktueller Status

Höhe 553.1 km
Geschwindigkeit 7.58 km/s
Subsatellitenpunkt -38.50°S, 63.34°E
Startdatum 19. Sept. 2022
Alter 3.2 years
Typ internet

Technische Details

Klassifizierung Payload
Masse 305.00 kg
Trockenmasse 290.00 kg
Gesamtmasse 305.00 kg
Länge 0.20 m
Durchmesser 2.80 m
Spannweite 9.00 m
Form Box + pan
Hersteller SPXS
Bus-Typ Starlink
Phasenstatus In Orbit
Besitzer/Staat SPXS/US

Große Konstellationen

Loading constellations...